When you browse on this site, cookies collect data to enhance your experience and personalize the content and advertising you see.
Visit our Privacy Policy to learn more. By continuing to use the site, you agree to this use of cookies and data.
  • En España
  • Lista de países
  • Para 7 días
  • Temperatura del agua
  • El tiempo en el mapa
  • Informadores
  • user-avatar
    Iniciar sesión

    Tiempo cada hora Maun

    Hoy, 22 Febrero, Sábado

    Tiempo Temperatura Precipitaciones Viento Presión Humedad
    00:00 +26°C° 0 mm 1 mps 680 mmHg 54%
    01:00 +25°C° 0 mm 1 mps 679 mmHg 58%
    02:00 +24°C° 0 mm 1 mps 679 mmHg 62%
    03:00 +24°C° 0 mm 1 mps 679 mmHg 62%
    04:00 +24°C° 0 mm 1 mps 679 mmHg 63%
    05:00 +24°C° 0 mm 1 mps 679 mmHg 64%
    06:00 +25°C° 0 mm 1 mps 679 mmHg 61%
    07:00 +26°C° 0 mm 1 mps 680 mmHg 58%
    08:00 +27°C° 0 mm 1 mps 681 mmHg 56%
    09:00 +30°C° 0 mm 1 mps 681 mmHg 48%
    10:00 +32°C° 0 mm 1 mps 682 mmHg 41%
    11:00 +35°C° 0 mm 1 mps 682 mmHg 33%
    12:00 +36°C° 0 mm 2 mps 681 mmHg 33%
    13:00 +36°C° 0 mm 2 mps 680 mmHg 33%
    14:00 +36°C° 0 mm 2 mps 679 mmHg 33%
    15:00 +35°C° 0 mm 2 mps 679 mmHg 35%
    16:00 +34°C° 0 mm 2 mps 678 mmHg 37%
    17:00 +34°C° 0 mm 2 mps 678 mmHg 39%
    18:00 +32°C° 0 mm 1 mps 678 mmHg 41%
    19:00 +31°C° 0 mm 1 mps 678 mmHg 43%
    20:00 +30°C° 0 mm 1 mps 678 mmHg 44%
    21:00 +29°C° 0 mm 1 mps 679 mmHg 46%
    22:00 +28°C° 0 mm 1 mps 679 mmHg 48%
    23:00 +26°C° 0 mm 0 mps 679 mmHg 50%

    Mañana, 23 Febrero, Domingo

    Tiempo Temperatura Precipitaciones Viento Presión Humedad
    00:00 +26°C° 0 mm 0 mps 679 mmHg 52%
    01:00 +27°C° 0 mm 1 mps 678 mmHg 53%
    02:00 +27°C° 0 mm 1 mps 678 mmHg 55%
    03:00 +26°C° 0 mm 1 mps 678 mmHg 56%
    04:00 +24°C° 0 mm 0 mps 678 mmHg 58%
    05:00 +23°C° 0 mm 0 mps 677 mmHg 59%
    06:00 +26°C° 0 mm 1 mps 678 mmHg 57%
    07:00 +28°C° 0 mm 1 mps 679 mmHg 54%
    08:00 +29°C° 0 mm 1 mps 680 mmHg 51%
    09:00 +31°C° 0 mm 1 mps 680 mmHg 46%
    10:00 +33°C° 0 mm 1 mps 680 mmHg 40%
    11:00 +35°C° 0 mm 1 mps 680 mmHg 35%
    12:00 +36°C° 0 mm 1 mps 679 mmHg 34%
    13:00 +36°C° 0 mm 1 mps 679 mmHg 33%
    14:00 +36°C° 0 mm 1 mps 678 mmHg 31%
    15:00 +36°C° 0 mm 1 mps 677 mmHg 33%
    16:00 +35°C° 0 mm 1 mps 677 mmHg 34%
    17:00 +35°C° 0 mm 1 mps 677 mmHg 35%
    18:00 +32°C° 0.4 mm 2 mps 677 mmHg 48%
    19:00 +29°C° 0.4 mm 3 mps 677 mmHg 60%
    20:00 +26°C° 0.4 mm 3 mps 677 mmHg 73%
    21:00 +25°C° 0.7 mm 3 mps 678 mmHg 76%
    22:00 +24°C° 0.7 mm 3 mps 678 mmHg 79%
    23:00 +24°C° 0.7 mm 3 mps 679 mmHg 82%

    Pasado mañana, 24 Febrero, Lunes

    Tiempo Temperatura Precipitaciones Viento Presión Humedad
    00:00 +23°C° 0.1 mm 2 mps 679 mmHg 85%
    01:00 +23°C° 0.1 mm 2 mps 678 mmHg 88%
    02:00 +23°C° 0.1 mm 2 mps 678 mmHg 90%
    03:00 +22°C° 0.5 mm 3 mps 678 mmHg 90%
    04:00 +22°C° 0.5 mm 4 mps 678 mmHg 90%
    05:00 +22°C° 0.5 mm 4 mps 678 mmHg 91%
    06:00 +22°C° 0.3 mm 5 mps 679 mmHg 88%
    07:00 +22°C° 0.3 mm 6 mps 679 mmHg 86%
    08:00 +23°C° 0.3 mm 7 mps 680 mmHg 84%
    09:00 +24°C° 0 mm 7 mps 680 mmHg 75%
    10:00 +27°C° 0 mm 8 mps 681 mmHg 67%
    11:00 +29°C° 0 mm 8 mps 681 mmHg 59%
    12:00 +28°C° 0.1 mm 8 mps 681 mmHg 60%
    13:00 +28°C° 0.1 mm 8 mps 680 mmHg 61%
    14:00 +27°C° 0.1 mm 8 mps 680 mmHg 62%
    15:00 +27°C° 0 mm 7 mps 679 mmHg 63%
    16:00 +27°C° 0 mm 7 mps 679 mmHg 63%
    17:00 +26°C° 0 mm 6 mps 679 mmHg 63%
    18:00 +24°C° 0 mm 6 mps 679 mmHg 67%
    19:00 +23°C° 0 mm 6 mps 680 mmHg 71%
    20:00 +22°C° 0 mm 6 mps 680 mmHg 75%
    21:00 +22°C° 0 mm 6 mps 680 mmHg 76%
    22:00 +22°C° 0 mm 6 mps 681 mmHg 77%
    23:00 +21°C° 0 mm 5 mps 681 mmHg 77%

    25 Febrero, Martes

    Tiempo Temperatura Precipitaciones Viento Presión Humedad
    00:00 +21°C° 0 mm 5 mps 680 mmHg 77%
    01:00 +21°C° 0 mm 5 mps 680 mmHg 78%
    02:00 +20°C° 0 mm 5 mps 680 mmHg 78%
    03:00 +20°C° 0 mm 5 mps 680 mmHg 79%
    04:00 +20°C° 0 mm 5 mps 680 mmHg 80%
    05:00 +20°C° 0 mm 5 mps 680 mmHg 81%
    06:00 +20°C° 0.1 mm 5 mps 680 mmHg 82%
    07:00 +19°C° 0.1 mm 5 mps 680 mmHg 83%
    08:00 +19°C° 0.1 mm 5 mps 680 mmHg 85%
    09:00 +19°C° 0.7 mm 5 mps 680 mmHg 87%
    10:00 +19°C° 0.7 mm 4 mps 680 mmHg 88%
    11:00 +19°C° 0.7 mm 4 mps 680 mmHg 90%
    12:00 +19°C° 0.4 mm 4 mps 680 mmHg 89%
    13:00 +20°C° 0.4 mm 4 mps 680 mmHg 88%
    14:00 +20°C° 0.4 mm 4 mps 679 mmHg 87%
    15:00 +20°C° 0 mm 4 mps 679 mmHg 87%
    16:00 +20°C° 0 mm 4 mps 679 mmHg 86%
    17:00 +21°C° 0 mm 4 mps 678 mmHg 86%
    18:00 +20°C° 0.1 mm 3 mps 679 mmHg 87%
    19:00 +20°C° 0.1 mm 3 mps 679 mmHg 87%
    20:00 +20°C° 0.1 mm 3 mps 679 mmHg 88%
    21:00 +20°C° 0 mm 3 mps 679 mmHg 88%
    22:00 +20°C° 0 mm 3 mps 680 mmHg 89%
    23:00 +19°C° 0 mm 3 mps 680 mmHg 89%

    26 Febrero, Miércoles

    Tiempo Temperatura Precipitaciones Viento Presión Humedad
    00:00 +19°C° 0 mm 3 mps 679 mmHg 90%
    01:00 +19°C° 0 mm 2 mps 679 mmHg 91%
    02:00 +19°C° 0 mm 2 mps 679 mmHg 91%
    03:00 +20°C° 0 mm 2 mps 679 mmHg 90%
    04:00 +20°C° 0 mm 2 mps 679 mmHg 89%
    05:00 +20°C° 0 mm 3 mps 679 mmHg 88%
    06:00 +20°C° 0 mm 3 mps 679 mmHg 86%
    07:00 +20°C° 0 mm 3 mps 679 mmHg 85%
    08:00 +21°C° 0 mm 4 mps 680 mmHg 83%
    09:00 +21°C° 0 mm 4 mps 680 mmHg 81%
    10:00 +22°C° 0 mm 4 mps 680 mmHg 78%
    11:00 +23°C° 0 mm 4 mps 680 mmHg 76%
    12:00 +24°C° 0.1 mm 3 mps 680 mmHg 77%
    13:00 +24°C° 0.1 mm 3 mps 679 mmHg 78%
    14:00 +22°C° 0.1 mm 3 mps 679 mmHg 80%
    15:00 +24°C° 0 mm 3 mps 679 mmHg 76%
    16:00 +25°C° 0 mm 3 mps 678 mmHg 73%
    17:00 +26°C° 0 mm 3 mps 678 mmHg 70%
    18:00 +25°C° 0 mm 2 mps 678 mmHg 75%
    19:00 +24°C° 0 mm 2 mps 678 mmHg 81%
    20:00 +21°C° 0 mm 2 mps 678 mmHg 86%
    21:00 +21°C° 0 mm 2 mps 679 mmHg 86%
    22:00 +21°C° 0 mm 2 mps 679 mmHg 85%
    23:00 +23°C° 0 mm 2 mps 679 mmHg 85%

    27 Febrero, Jueves

    Tiempo Temperatura Precipitaciones Viento Presión Humedad
    00:00 +21°C° 0.2 mm 2 mps 679 mmHg 87%
    01:00 +21°C° 0.2 mm 2 mps 679 mmHg 89%
    02:00 +22°C° 0.2 mm 1 mps 679 mmHg 90%
    03:00 +22°C° 0.1 mm 1 mps 679 mmHg 91%
    04:00 +21°C° 0.1 mm 1 mps 679 mmHg 92%
    05:00 +21°C° 0.1 mm 1 mps 679 mmHg 93%
    06:00 +22°C° 0 mm 1 mps 679 mmHg 91%
    07:00 +21°C° 0 mm 2 mps 679 mmHg 89%
    08:00 +23°C° 0 mm 2 mps 680 mmHg 87%
    09:00 +25°C° 0 mm 2 mps 680 mmHg 78%
    10:00 +27°C° 0 mm 2 mps 681 mmHg 70%
    11:00 +29°C° 0 mm 1 mps 681 mmHg 61%
    12:00 +30°C° 0.3 mm 1 mps 681 mmHg 58%
    13:00 +31°C° 0.3 mm 1 mps 680 mmHg 56%
    14:00 +32°C° 0.3 mm 1 mps 679 mmHg 53%
    15:00 +31°C° 2.8 mm 1 mps 679 mmHg 57%
    16:00 +30°C° 2.8 mm 2 mps 678 mmHg 62%
    17:00 +29°C° 2.8 mm 2 mps 677 mmHg 67%
    18:00 +28°C° 0.9 mm 2 mps 678 mmHg 71%
    19:00 +26°C° 0.9 mm 2 mps 678 mmHg 76%
    20:00 +25°C° 0.9 mm 2 mps 678 mmHg 80%
    21:00 +25°C° 0.2 mm 2 mps 678 mmHg 81%
    22:00 +25°C° 0.2 mm 2 mps 679 mmHg 82%
    23:00 +24°C° 0.2 mm 2 mps 679 mmHg 83%
    Mostrar más